Temp
18 18 18 18 17 18 17 17 18 18 19 18 18 18 18 18 18 18 19 19 19 19 19 19 19 19 19 19 19 19 19 19 18 18 18 18 19 19 19 19 18 18 18 18 18 18 18 18 18 18 18 18 18 18 18 18 18 18 19 18 18 18 19 19 18 18 19 18 18 18 18 18 19 19 18 18 18 18 18 18 17 17 17 17 17
17 17 17 18 18 18 18 18 18 18 18 18 18 18 18 18 18 18 18 18 18 18 18 19 19 19 19 19 19 19 19 19 19 19 19 19 19 19 19 18 18 18 18 18 18 18 18 18 18 18 18 18 18 18 18 17 17 18 18 18 18 18 18 18 18 18 17 17 17 17 16 16 17 18 18 18 18 18 18 17 17 17 17 17 16
17 17 18 18 18 18 18 18 18 18 18 18 18 18 18 18 18 18 18 18 18 18 18 18 19 19 19 19 19 19 19 19 19 19 19 19 19 18 18 18 18 18 18 18 18 18 18 18 18 18 18 18 18 18 17 17 17 18 18 18 17 18 18 18 17 17 17 16 15 16 16 16 16 17 17 18 18 18 17 17 17 17 17 17 16
18 18 18 18 18 19 18 18 18 18 18 18 18 18 18 18 18 18 18 18 18 18 18 19 19 19 19 19 19 19 19 19 19 19 19 19 19 18 18 18 18 18 17 18 17 17 17 18 18 18 18 18 18 17 17 17 17 18 18 17 17 17 17 17 17 17 17 16 16 16 16 16 17 17 17 17 18 17 17 17 17 17 17 17 16
18 18 18 18 18 18 18 18 18 18 18 18 18 18 18 18 18 18 18 18 19 19 19 19 19 19 19 19 19 19 19 19 19 19 19 19 19 19 19 19 18 18 17 17 17 17 17 17 17 18 18 17 17 17 18 18 18 18 17 17 17 17 17 17 17 17 17 17 16 17 16 16 17 17 16 17 17 17 17 17 17 17 17 17 16
18 18 18 17 17 17 17 17 17 17 18 18 18 18 18 18 19 19 19 19 19 19 19 19 19 19 19 19 19 19 19 19 19 19 19 19 19 19 19 18 18 18 17 17 17 17 17 17 17 17 17 17 17 17 17 18 18 17 17 17 17 17 17 17 16 17 17 17 17 17 17 17 17 17 17 17 17 17 17 17 17 17 17 16 16
17 17 17 17 16 17 17 16 17 17 17 17 18 18 18 18 18 18 18 18 18 19 19 19 19 19 18 18 18 18 19 19 19 19 19 19 19 19 19 18 18 18 17 17 17 17 17 16 16 17 17 17 17 17 17 17 18 17 17 17 17 17 17 17 17 17 16 16 17 17 17 17 17 17 17 17 16 16 17 17 16 16 17 17 16
16 16 16 16 16 16 16 16 16 16 17 17 17 17 17 17 17 17 17 17 17 18 18 18 18 18 18 18 18 18 19 19 19 19 18 19 19 19 19 18 18 18 17 17 17 16 16 16 16 16 17 17 16 17 17 17 17 17 17 17 17 17 17 17 17 17 16 16 16 16 17 17 17 17 18 18 17 16 16 16 16 16 16 16 16
16 16 16 16 16 16 16 16 16 16 16 16 16 17 17 17 17 17 17 17 17 17 17 17 17 17 17 17 18 18 18 18 18 18 18 18 18 19 19 18 18 18 17 17 17 16 16 16 16 16 16 16 16 17 17 17 17 17 17 17 17 17 17 17 17 17 17 17 16 16 16 16 16 17 18 18 17 17 16 15 15 15 15 16 16
16 16 16 16 16 16 16 16 16 16 16 16 16 16 16 17 17 17 16 16 16 16 17 17 17 17 17 17 17 17 17 17 18 18 18 18 18 18 18 18 18 17 17 17 17 16 16 16 16 16 16 16 16 16 17 17 17 17 17 17 16 16 17 17 17 17 17 17 17 16 16 16 16 16 17 17 17 17 17 16 15 15 15 15 16
16 16 16 16 16 16 16 16 16 16 16 16 16 16 16 16 16 16 16 16 16 16 16 16 16 16 16 16 16 16 16 16 17 17 17 17 17 17 17 17 17 17 16 17 17 17 17 16 16 16 16 16 16 16 16 16 17 17 17 16 16 16 16 17 17 17 17 17 17 17 17 17 17 17 17 17 17 17 17 16 15 15 15 15 16
16 16 16 16 16 16 16 16 16 16 16 16 16 16 16 16 16 16 16 16 16 16 15 15 15 15 15 15 15 15 16 16 16 16 16 16 16 16 17 16 16 16 16 16 16 17 17 17 16 16 16 16 16 16 16 16 16 16 16 16 16 16 16 16 16 16 16 17 17 17 17 17 17 18 18 18 17 17 17 16 16 16 16 16 16
16 16 16 16 16 16 16 16 16 16 16 16 16 16 16 16 16 16 15 15 15 15 15 15 15 15 15 15 15 15 15 15 15 16 16 16 16 16 16 16 16 16 16 16 16 16 16 16 16 16 16 16 16 16 16 16 16 16 16 16 16 16 15 15 16 16 16 16 17 17 17 17 18 18 18 18 18 18 17 16 16 16 16 16 16
16 15 16 16 16 16 16 16 16 16 16 16 16 16 16 16 16 15 15 15 15 15 15 15 15 15 14 14 14 15 15 15 15 15 15 15 15 15 16 16 16 16 16 16 16 15 16 16 16 16 16 16 16 16 16 16 16 16 16 16 16 16 16 15 16 16 16 16 17 17 17 17 17 17 18 18 17 17 17 16 16 15 15 15 16
16 16 16 16 16 16 16 16 16 16 16 16 16 16 16 16 15 15 15 14 14 14 15 15 14 14 14 14 14 14 14 14 14 14 15 15 15 15 15 15 15 15 15 15 15 16 16 16 16 16 17 17 17 16 16 16 16 16 16 16 16 16 16 15 15 16 16 16 16 17 17 17 17 17 17 17 17 17 17 17 16 15 15 15 15
16 16 16 16 16 16 16 16 16 16 16 16 16 16 16 16 15 15 14 14 14 14 14 14 14 14 14 14 14 14 14 14 14 14 14 14 14 15 15 15 15 15 15 15 15 15 15 16 16 16 16 17 17 16 16 16 16 16 16 16 16 16 16 16 15 15 16 16 16 16 17 17 17 17 17 17 17 17 17 17 16 16 15 15 15
15 16 16 15 16 16 16 16 16 16 16 16 16 16 16 15 15 15 15 15 15 15 15 15 14 14 14 14 14 14 14 14 13 14 14 14 14 14 14 15 15 15 15 15 15 15 15 15 15 16 16 16 16 16 16 16 16 16 16 16 16 16 16 16 16 15 16 16 16 16 16 17 17 17 17 17 17 17 17 17 16 16 16 16 15
15 15 15 15 15 16 16 16 16 16 16 16 16 16 16 15 15 15 15 15 15 15 15 15 15 14 14 14 14 14 14 13 13 13 13 13 13 13 14 14 14 15 15 15 15 15 15 16 16 15 16 16 16 16 16 15 15 15 15 15 16 16 15 16 16 15 15 16 16 16 16 16 17 17 17 17 17 17 17 17 16 16 16 16 16
15 15 15 15 15 16 16 16 16 16 16 16 16 16 15 15 15 15 15 16 15 15 15 15 15 15 14 14 14 14 14 13 13 13 13 13 13 13 13 13 14 14 14 14 15 15 15 15 16 16 15 15 15 16 16 16 15 15 14 14 15 15 15 15 16 16 15 15 15 16 16 16 16 16 17 17 17 17 17 17 17 16 16 16 17
15 15 15 15 15 16 16 16 16 16 16 16 16 16 16 15 15 15 15 16 16 15 15 15 15 15 14 14 14 14 14 13 13 13 13 12 12 12 12 13 13 13 13 14 14 14 15 15 16 16 16 15 15 15 15 15 15 15 14 14 15 15 14 15 16 16 16 15 15 16 16 16 16 16 17 17 17 17 17 17 17 17 15 15 17
14 15 15 15 16 16 16 16 16 16 16 16 16 16 16 15 15 15 16 16 16 16 15 15 15 14 14 14 14 13 13 13 13 13 12 12 12 12 12 12 12 12 13 13 13 14 14 15 15 15 16 16 15 15 15 15 15 15 14 14 14 14 15 15 15 15 15 15 15 16 16 15 15 16 16 17 17 17 17 17 17 17 15 16 18
15 15 15 15 16 16 16 16 16 16 16 16 16 16 15 15 15 15 15 16 15 15 15 15 15 14 14 14 13 13 13 13 12 12 12 12 12 12 11 11 11 12 12 13 13 13 14 14 14 14 15 15 15 15 15 14 14 14 15 14 14 15 15 15 15 15 15 15 15 15 15 15 15 15 16 17 17 17 17 16 16 16 15 16 18
15 15 15 15 16 16 16 16 16 16 16 16 15 15 15 15 15 15 15 15 15 15 14 14 14 14 14 13 13 12 12 12 12 11 11 11 11 11 11 11 11 11 12 12 12 13 13 13 14 14 14 15 15 14 14 14 14 15 15 15 14 15 15 15 15 15 15 15 15 15 15 15 15 15 16 16 17 17 16 16 16 16 15 15 16
15 15 15 15 16 15 15 16 16 16 16 15 15 15 15 15 15 15 15 15 15 15 14 14 14 14 13 13 12 12 12 11 11 11 11 10 10 10 10 10 10 10 10 11 12 12 12 12 13 13 13 14 13 13 14 14 14 15 15 15 15 15 15 14 15 15 15 15 15 15 15 15 15 15 16 16 16 16 16 15 15 15 15 16 16
15 15 15 15 15 15 15 15 15 15 15 15 15 15 15 15 15 15 15 15 15 14 14 13 13 13 13 12 12 12 11 11 10 10 10 10 10 9 9 9 9 9 9 9 11 11 11 11 11 12 12 12 12 12 12 12 13 13 14 14 14 15 15 14 14 14 15 15 15 15 16 16 15 15 15 15 15 15 15 16 16 16 16 16 17
14 15 15 14 14 14 15 15 15 15 15 15 15 14 14 14 14 15 14 14 14 14 13 13 13 13 12 12 12 11 11 11 10 10 9 9 9 9 9 8 8 8 8 8 9 9 9 9 10 10 11 11 10 10 11 11 12 12 13 14 14 14 15 15 14 14 14 15 15 15 15 15 16 16 15 15 15 15 16 16 16 16 17 16 16
14 14 14 14 14 13 14 14 14 14 14 14 14 14 14 14 14 14 14 13 13 13 12 12 12 12 12 12 11 11 11 11 10 10 9 9 9 8 8 8 7 7 7 7 7 8 8 9 9 10 9 9 9 9 10 10 11 12 12 13 13 14 14 14 14 14 14 15 16 16 15 15 16 16 16 15 15 16 16 16 16 17 17 16 16
14 14 13 13 13 13 13 14 14 14 14 14 14 14 14 14 14 14 13 13 12 12 12 12 12 11 11 11 11 11 11 10 10 9 9 9 8 8 8 7 7 7 7 7 6 6 7 7 7 8 8 8 8 8 8 9 10 11 12 12 13 13 14 14 14 14 14 15 16 16 16 16 16 16 16 16 16 16 16 16 16 16 16 16 16
13 13 13 13 13 12 13 14 14 14 14 14 14 14 14 14 14 13 12 12 12 11 11 11 11 11 11 11 11 10 10 10 9 9 9 8 8 8 7 7 7 7 7 6 6 6 6 6 6 6 6 6 6 6 6 7 8 9 11 12 12 13 13 14 14 14 14 14 15 16 16 16 16 16 16 16 16 16 16 16 16 16 16 16 16
12 12 13 13 12 12 13 13 14 14 14 14 14 14 14 14 13 12 11 11 11 11 11 11 11 10 10 10 10 10 10 9 9 9 9 8 8 8 7 7 7 7 6 6 5 5 5 5 5 5 5 5 5 5 6 7 7 8 9 11 12 12 13 13 14 14 14 15 15 15 16 16 16 16 16 16 16 16 16 16 17 16 16 16 16
12 12 13 12 12 12 13 13 14 14 14 14 14 14 14 13 12 11 11 11 11 11 10 10 10 10 10 10 10 10 10 9 9 9 9 9 8 8 7 7 7 7 6 6 5 5 5 4 4 4 4 4 4 4 5 7 7 8 8 10 11 12 13 13 13 13 14 15 15 15 15 15 15 15 15 15 15 16 16 16 16 17 17 17 17
12 12 12 12 11 12 13 13 13 14 14 13 14 14 14 13 11 11 11 11 11 10 10 10 10 10 10 10 10 10 10 9 9 9 9 9 8 8 8 7 7 7 6 6 6 5 5 4 4 4 4 4 4 4 5 6 7 8 9 10 11 12 13 13 13 13 14 14 15 15 15 14 14 15 15 15 16 16 16 16 15 16 16 16 16
12 12 12 12 11 12 12 13 13 13 13 13 13 13 13 12 11 11 11 10 10 10 10 10 9 9 9 9 9 9 9 9 9 9 9 9 9 8 8 7 7 7 7 6 6 5 5 4 4 4 4 4 3 4 5 6 7 8 9 10 11 11 13 14 14 13 13 14 14 14 14 14 14 14 15 15 16 16 15 15 15 15 15 15 15
12 11 11 11 11 11 12 12 12 12 12 13 13 13 12 11 11 10 10 10 10 10 10 10 9 9 9 9 9 9 9 9 9 9 9 9 9 8 8 8 7 7 7 6 6 6 5 5 4 4 3 3 3 3 5 6 7 9 10 10 11 11 12 13 13 13 13 14 14 14 14 15 15 14 14 15 15 15 15 15 15 14 15 15 15
11 11 10 10 11 11 11 11 11 12 12 12 12 12 12 11 10 10 10 10 10 10 10 10 9 9 9 9 9 9 9 9 9 9 9 9 9 8 8 8 7 7 7 6 6 6 5 5 4 3 3 3 3 3 4 6 7 8 9 10 10 11 12 13 12 13 13 13 14 14 14 15 15 15 15 15 14 14 14 14 14 14 14 15 15
11 10 10 11 11 11 11 11 11 11 12 12 12 12 12 11 11 10 10 10 10 10 10 10 10 9 9 9 9 9 8 8 8 8 8 8 8 8 8 8 7 7 7 6 6 5 5 4 4 3 3 3 3 3 4 5 6 8 9 10 10 10 11 12 11 12 13 13 14 14 14 15 15 14 15 15 14 14 14 14 14 13 13 14 14
11 11 11 11 11 11 11 11 11 11 11 11 11 11 11 11 11 10 10 10 10 10 10 10 9 9 9 9 9 8 8 7 7 7 8 8 8 8 8 7 7 7 7 6 6 6 5 5 4 4 3 3 3 3 4 4 5 6 8 9 9 9 9 10 10 10 11 11 12 13 14 14 14 14 14 14 14 13 13 13 13 13 13 13 13
11 11 11 11 11 11 11 11 11 11 11 11 11 11 11 11 10 10 10 10 10 10 10 9 9 9 9 9 8 8 8 7 7 7 7 7 7 7 7 7 7 7 6 6 6 6 5 5 4 4 3 3 3 3 3 4 4 5 6 7 7 7 8 8 9 9 9 9 10 11 13 13 14 14 14 14 13 13 13 13 13 12 12 12 12
11 11 11 11 12 11 11 11 11 11 11 11 11 10 10 10 10 10 10 10 10 10 9 9 9 9 9 9 8 8 8 7 7 7 7 7 7 7 7 7 6 6 6 6 6 6 5 5 4 4 3 3 3 3 3 3 4 5 5 5 6 6 6 6 7 7 8 8 9 10 11 12 13 13 13 13 13 13 13 13 13 12 12 11 11
11 11 12 12 12 12 11 11 11 11 11 10 10 10 10 10 10 10 10 10 10 10 9 9 9 9 9 9 8 8 8 7 7 7 7 7 7 7 6 6 6 6 6 6 6 6 5 5 4 4 3 3 3 3 4 4 4 4 5 5 5 5 4 4 5 5 6 7 8 9 10 11 12 12 13 14 13 13 13 13 13 13 12 10 10
11 12 12 12 12 12 12 12 12 11 11 10 10 10 10 10 10 10 10 10 10 10 9 9 9 9 9 9 8 8 8 7 7 7 7 7 6 6 6 6 6 6 6 6 6 5 5 5 4 4 4 3 3 3 4 4 4 4 4 4 5 4 4 4 4 4 5 5 6 7 8 10 11 12 13 13 13 13 13 13 12 12 12 10 10
12 12 12 12 12 12 12 12 12 11 11 10 10 10 10 10 10 10 10 10 10 10 9 9 9 9 9 9 8 8 8 7 7 7 6 6 6 6 6 6 6 5 5 5 5 5 5 4 4 4 3 3 3 3 4 4 4 4 4 4 4 4 4 4 4 4 4 4 4 5 6 8 10 11 12 13 13 13 13 12 12 12 11 10 10
12 12 12 12 12 12 12 12 12 12 11 11 10 10 10 10 10 10 10 10 10 10 9 9 9 9 9 8 8 8 8 7 7 7 6 6 6 6 6 6 5 5 5 5 5 5 4 4 3 3 3 3 4 4 3 4 4 4 4 4 4 4 5 4 4 4 4 4 4 4 5 6 8 9 9 10 12 12 12 12 12 12 11 10 10
12 12 12 12 12 12 12 12 12 12 11 11 11 10 10 10 10 10 10 10 10 10 10 9 9 9 9 8 8 8 8 7 7 7 6 6 6 6 5 5 5 5 5 5 4 4 4 3 3 3 3 3 4 4 4 4 4 4 4 4 4 5 5 5 4 4 4 4 4 4 5 6 6 6 7 8 9 10 10 10 10 10 10 10 10
12 12 12 12 12 12 12 12 12 12 11 11 11 10 10 10 10 10 10 10 10 10 10 9 9 9 9 8 8 8 8 7 7 7 6 6 6 6 5 5 5 5 4 4 4 4 4 3 3 3 3 3 3 4 4 4 4 4 4 4 4 5 5 5 4 4 4 5 5 5 5 5 5 5 5 6 7 8 8 9 9 9 9 9 9
12 12 12 12 12 12 12 12 12 12 12 11 11 11 10 10 10 10 10 10 10 10 10 10 9 9 9 8 8 8 8 7 7 7 6 6 6 6 5 5 5 5 4 4 4 4 3 3 3 2 2 3 3 4 4 4 4 3 4 4 4 4 5 5 5 5 5 5 5 5 5 5 5 5 4 4 5 6 7 7 7 7 7 7 7
12 12 12 12 12 12 12 12 12 12 12 11 11 11 11 11 10 10 10 10 10 10 10 10 10 9 9 8 8 8 8 8 7 7 6 6 6 6 6 5 5 5 4 4 4 4 3 3 3 2 2 3 3 3 3 3 3 3 3 3 4 4 4 5 5 5 5 5 5 5 5 5 5 5 4 3 4 5 5 6 6 5 5 5 5
12 12 12 12 12 11 11 11 11 11 11 11 11 11 11 11 11 10 10 10 10 10 10 10 10 10 9 9 8 8 8 8 8 7 7 6 6 6 5 5 5 5 5 4 4 4 3 3 3 3 3 3 3 3 3 3 3 3 3 3 4 4 4 4 4 5 5 5 5 5 5 5 5 5 5 4 3 3 4 4 5 5 5 5 5
12 12 12 12 12 12 12 11 11 11 11 11 11 11 11 11 11 11 11 10 10 10 10 10 10 10 9 9 9 8 8 8 8 7 7 7 6 6 6 5 5 5 5 4 4 4 4 3 3 3 3 3 3 3 3 3 3 3 3 3 3 3 4 4 4 4 5 5 4 4 4 3 3 3 3 3 3 3 3 3 4 4 4 4 4
11 12 12 11 11 11 11 11 11 11 11 11 11 11 11 11 11 11 11 11 10 10 10 10 10 10 10 10 9 9 8 8 8 8 7 7 7 6 6 6 6 6 5 5 4 4 4 4 4 4 4 3 3 3 4 3 3 4 4 3 3 3 4 4 4 4 4 3 3 2 2 2 1 1 1 2 2 2 2 2 2 2 3 3 3
12 11 11 11 11 11 11 11 11 11 11 11 11 11 11 11 11 11 11 10 10 10 10 10 10 10 10 10 10 9 9 8 8 8 8 8 7 7 7 6 6 6 6 5 5 5 4 4 4 4 4 4 4 4 4 4 4 4 4 3 3 4 4 4 4 4 4 2 2 1 1 1 1 1 1 1 1 1 1 1 1 1 1 2 2
Height
799 802 803 805 805 805 806 808 812 814 813 814 814 814 815 815 816 816 816 816 816 816 816 816 816 817 818 819 819 818 818 819 820 821 821 821 820 819 819 819 819 819 820 820 819 819 820 821 822 822 823 824 825 826 827 828 829 828 828 829 830 830 831 831 831 832 834 833 833 834 834 834 834 836 837 838 839 839 839 839 840 840 841 843 843
800 803 804 803 804 806 808 811 814 814 814 815 815 815 816 816 817 817 816 817 817 817 817 817 817 817 818 818 818 819 818 819 819 819 820 819 819 818 818 818 818 818 818 818 818 818 818 819 819 820 821 822 823 824 825 826 827 827 827 827 828 829 829 830 830 831 833 834 833 833 834 835 834 835 836 837 838 838 838 838 839 840 840 841 842
801 803 804 803 804 806 810 812 814 815 814 815 816 816 817 817 817 818 817 818 818 818 817 817 817 817 818 818 818 818 818 818 818 818 818 818 817 817 817 817 817 817 817 817 817 817 817 817 817 818 819 819 820 822 822 823 824 824 825 826 826 827 827 828 829 829 830 834 836 835 835 836 836 834 835 836 837 837 837 837 838 838 839 840 841
802 803 804 804 805 808 811 813 814 815 815 816 816 817 817 818 818 818 818 819 818 818 818 818 817 817 818 818 817 817 817 817 817 817 817 817 817 816 816 816 815 815 815 815 815 815 815 815 816 816 817 818 818 819 820 820 821 822 823 824 824 825 825 826 827 827 826 830 835 836 834 835 836 834 833 834 835 836 836 836 837 837 838 839 840
802 803 805 805 806 810 812 814 815 815 816 816 816 817 817 818 819 819 819 819 819 818 818 817 817 817 817 816 817 816 816 817 817 817 817 817 816 815 815 814 814 814 814 814 813 813 813 813 814 814 815 815 816 816 817 817 818 819 820 821 822 822 823 823 825 825 825 825 829 833 833 834 833 831 832 834 834 835 835 835 836 836 837 838 839
802 804 806 807 808 811 814 815 816 816 816 816 816 817 817 818 818 819 819 819 819 818 817 817 816 816 816 816 816 817 817 817 816 816 816 816 815 814 814 813 813 813 813 813 812 812 812 812 812 812 813 813 813 814 814 815 815 816 817 818 819 820 821 822 822 823 823 823 823 826 828 828 828 829 831 833 833 833 834 834 834 835 836 836 837
803 806 807 808 810 813 815 816 817 817 817 817 817 818 818 819 819 819 820 819 819 818 817 817 816 817 817 817 818 818 818 817 817 816 816 815 814 813 813 812 811 812 812 812 811 811 811 810 810 811 811 811 811 811 811 812 813 814 815 816 817 818 818 818 819 820 821 821 821 823 823 823 826 828 828 830 832 833 832 832 833 834 835 835 836
805 807 809 810 812 814 816 817 816 817 817 817 818 819 819 820 820 820 820 820 819 819 818 817 818 818 817 818 818 818 818 817 816 816 815 814 814 813 812 812 811 811 811 811 811 811 810 810 809 809 809 809 809 809 809 810 811 812 813 814 814 815 815 815 816 817 817 817 818 820 821 821 824 826 824 825 828 830 831 831 831 833 834 834 834
806 808 809 811 813 815 816 817 817 818 818 818 819 819 820 820 820 820 820 821 820 820 819 819 818 818 817 817 817 817 817 817 816 815 815 814 813 813 812 812 811 811 810 810 810 809 809 808 807 807 807 808 808 808 808 808 809 810 810 811 812 812 813 813 813 814 814 815 815 817 819 820 823 825 823 822 823 826 829 828 829 831 832 832 832
808 808 810 813 815 816 817 817 817 818 818 819 820 820 821 821 821 821 821 822 821 821 820 820 819 818 818 817 817 817 816 815 815 814 814 814 813 813 812 811 811 810 809 809 808 808 808 807 806 806 806 807 807 806 806 806 807 807 808 809 809 810 810 810 810 811 811 812 813 814 816 818 821 822 821 820 821 822 824 825 826 827 828 829 830
810 810 812 814 815 816 817 818 818 819 819 820 820 821 821 821 822 822 822 822 821 821 821 820 819 818 818 817 817 817 816 815 815 814 814 814 813 813 812 811 810 810 809 808 808 807 806 806 805 805 806 806 806 806 806 806 805 806 806 807 807 807 807 807 807 808 809 810 810 810 811 814 816 817 817 817 819 819 821 823 823 824 826 827 828
810 811 813 814 815 816 817 818 818 819 820 820 821 822 822 822 823 822 822 822 822 821 821 821 820 819 818 817 817 817 816 816 815 815 815 814 814 813 812 811 810 809 809 808 807 806 805 805 805 805 805 805 806 806 807 807 806 805 804 805 806 806 806 806 805 805 806 806 807 807 808 809 812 813 814 815 816 816 818 820 821 823 825 826 826
809 811 812 813 814 816 817 818 819 820 821 821 822 823 823 823 823 823 823 822 822 822 821 821 820 820 819 818 817 817 816 816 816 815 816 815 814 813 812 811 809 808 808 807 807 806 805 804 804 804 804 804 805 805 806 805 804 803 802 803 803 804 805 805 804 803 803 803 803 804 805 807 808 810 811 813 813 814 815 817 819 821 823 824 825
810 811 812 813 814 816 818 819 820 821 822 823 823 823 824 824 823 823 823 822 822 822 822 821 821 820 819 818 817 817 816 816 816 815 815 815 814 813 812 811 809 808 806 806 806 805 804 803 803 803 803 802 802 802 802 802 802 801 800 800 800 800 801 802 802 802 802 802 801 801 802 804 805 807 809 810 811 812 813 814 817 820 822 824 824
812 812 813 815 816 817 819 820 822 823 823 824 824 824 823 823 823 822 823 822 822 822 822 821 821 820 819 818 817 816 816 816 815 815 815 815 814 812 811 810 809 807 806 805 804 803 802 802 802 802 801 800 798 798 799 799 799 799 798 798 797 797 798 798 799 799 799 799 799 799 800 801 803 804 806 807 808 809 810 811 814 819 822 824 823
813 814 815 817 818 819 821 822 824 824 824 825 824 824 823 822 822 822 822 822 821 821 821 821 821 820 820 819 818 817 816 815 815 815 815 814 813 812 811 810 808 807 805 804 803 802 802 801 800 800 799 798 796 796 796 796 796 795 795 794 793 793 793 794 795 796 796 797 796 796 797 799 800 801 802 804 806 807 808 810 812 814 818 821 822
815 816 817 819 820 821 823 824 825 825 825 825 824 823 822 822 822 822 821 821 820 820 820 820 820 820 819 818 818 817 816 816 816 815 815 814 813 812 811 809 808 806 805 804 803 802 800 799 798 798 797 796 795 795 794 794 793 792 791 791 790 789 789 790 791 793 793 794 794 794 795 796 797 798 799 801 803 804 806 807 809 810 812 816 818
817 818 819 821 821 823 824 824 825 825 824 824 824 823 822 822 821 821 820 820 820 820 820 820 819 819 819 818 818 817 817 816 816 816 815 814 813 812 811 809 808 806 805 803 802 800 799 798 797 796 795 794 793 793 793 792 791 790 789 788 787 787 787 787 789 790 791 792 791 791 793 794 795 796 797 798 800 801 802 804 807 807 810 813 812
818 819 821 821 822 823 824 824 824 824 824 824 823 823 822 822 821 820 820 819 819 820 819 820 820 819 819 818 818 817 816 816 816 816 815 814 814 812 810 809 807 806 804 803 801 800 798 796 795 795 794 793 792 791 790 789 787 786 786 786 785 785 784 785 786 787 788 789 789 790 790 791 793 793 794 796 797 798 799 801 803 803 807 811 808
819 821 821 821 822 823 823 824 824 823 823 823 822 822 822 821 821 820 820 819 819 820 820 820 820 819 819 818 818 817 816 816 815 815 815 814 814 812 810 809 807 805 803 802 800 799 797 796 794 793 792 791 790 789 788 786 784 783 783 784 783 782 783 783 783 784 785 787 788 788 788 789 791 791 792 793 795 796 798 799 799 800 806 809 805
820 820 821 821 821 822 823 823 823 822 822 822 822 822 822 821 821 820 820 820 819 820 821 821 820 820 819 818 818 817 817 816 816 815 815 814 813 812 811 809 807 805 803 801 800 798 797 795 793 792 790 789 788 787 786 785 783 782 782 783 783 782 782 782 782 782 783 784 786 786 786 787 788 789 790 791 792 793 795 797 798 799 804 805 802
820 819 820 821 821 822 823 823 822 822 822 822 822 822 822 822 822 821 821 820 821 821 821 821 821 820 820 819 819 818 817 817 816 816 815 815 814 812 811 810 808 806 803 801 800 798 796 794 792 790 788 787 786 785 785 783 782 781 780 780 781 781 781 781 781 781 781 782 783 783 784 785 786 787 787 788 790 791 793 796 797 798 802 803 799
819 819 820 821 821 822 823 822 822 822 822 822 823 823 823 823 823 823 822 822 822 822 822 822 822 821 821 821 820 819 818 817 817 816 816 815 815 813 812 810 809 806 804 801 800 798 796 794 791 789 787 786 785 784 783 782 781 780 778 777 778 778 778 779 778 778 778 779 780 781 781 782 783 784 785 786 788 790 792 794 795 797 801 804 801
819 820 820 821 821 822 823 823 823 822 823 823 824 824 824 824 824 824 824 823 823 823 823 823 823 823 822 821 820 819 819 818 818 818 817 817 816 815 813 811 810 807 804 802 800 797 796 794 791 789 788 786 785 783 782 781 781 779 778 776 776 776 776 777 777 776 777 777 778 778 778 779 781 782 783 784 785 787 789 791 792 793 797 800 800
819 820 821 822 822 823 824 824 824 823 824 824 825 826 826 826 826 825 825 825 824 824 824 824 824 824 823 821 821 820 820 819 819 819 819 818 818 816 814 813 811 808 806 803 800 798 796 794 792 791 789 787 785 783 781 780 780 779 778 776 775 774 774 774 774 774 775 775 775 775 775 776 778 779 780 782 783 785 786 787 788 788 791 794 797
821 822 823 823 824 825 825 826 825 825 826 826 827 827 827 827 827 826 826 826 825 825 825 825 825 824 823 822 822 822 821 822 822 821 821 820 819 818 816 814 812 810 807 804 801 799 797 795 793 792 791 788 786 784 782 780 779 778 777 776 775 774 772 771 771 772 773 773 773 773 774 774 775 776 777 779 780 782 784 784 784 785 787 790 793
822 824 825 825 826 827 827 828 828 827 827 828 828 829 829 829 828 828 828 827 826 826 826 826 826 825 825 824 824 824 824 824 824 824 824 823 821 820 817 816 814 811 809 806 803 801 799 796 794 792 791 790 787 785 782 780 778 777 776 775 774 773 772 770 769 770 771 771 770 771 772 773 774 774 775 776 778 780 781 782 782 782 784 787 789
825 826 827 828 828 829 829 830 829 829 829 829 830 830 830 830 829 829 829 828 828 828 828 828 828 827 827 827 827 827 827 827 826 826 825 824 823 821 819 818 816 813 811 808 806 803 801 798 796 793 792 791 788 786 783 780 778 777 775 774 773 772 770 769 768 768 770 769 769 769 769 770 772 772 773 774 775 777 779 780 780 780 782 784 786
827 829 829 830 831 831 831 831 830 830 830 830 831 832 831 831 831 831 831 830 829 829 830 830 829 829 829 829 829 829 829 829 828 828 827 826 825 823 822 820 817 815 813 811 808 806 803 801 798 795 793 791 789 787 786 783 780 776 774 772 771 770 769 769 768 768 768 768 768 768 767 767 768 770 771 772 773 775 776 778 778 779 780 781 783
830 831 831 832 832 833 833 832 831 830 831 832 832 833 833 832 833 833 833 832 831 831 832 832 831 831 832 831 831 831 831 830 829 829 828 828 826 825 823 821 819 817 815 813 811 808 805 803 800 797 795 792 790 788 786 784 781 777 774 771 770 769 767 767 767 766 766 766 767 767 766 766 766 767 769 770 771 773 774 775 775 776 777 778 779
832 832 833 833 833 834 833 832 832 832 832 833 833 834 834 834 834 835 834 833 833 833 834 834 834 834 834 833 833 832 832 831 831 830 830 829 828 826 824 823 820 819 817 815 812 810 808 806 803 799 796 793 791 789 785 782 779 777 773 770 768 767 765 764 763 763 763 764 764 764 764 764 765 766 767 768 769 770 770 772 773 773 774 774 774
833 834 834 835 835 834 833 833 833 833 834 835 835 835 835 836 836 836 836 835 835 835 836 836 836 836 835 835 834 834 833 832 832 832 831 830 829 827 825 823 821 820 819 816 814 812 810 807 804 801 798 795 792 788 784 780 777 774 772 769 767 765 763 761 760 760 761 761 760 760 761 763 764 764 764 765 765 766 767 768 769 770 771 772 772
834 835 835 835 835 834 834 834 834 835 836 837 837 837 837 838 838 838 837 837 837 837 837 838 838 837 836 836 836 835 834 834 833 833 832 831 829 828 826 825 823 822 820 818 816 814 812 809 806 803 800 797 794 789 783 779 776 773 770 768 765 763 761 760 759 759 759 758 758 759 760 761 762 762 762 762 763 764 765 765 766 767 769 771 773
835 836 836 836 835 835 835 835 836 837 838 838 838 838 839 839 839 839 839 838 839 839 839 839 839 838 838 838 837 836 836 835 835 834 833 832 830 829 828 826 825 823 821 819 817 815 813 811 808 805 802 798 795 790 784 780 775 772 769 766 763 761 760 758 758 757 757 757 757 758 757 757 757 758 759 760 761 762 762 763 764 765 767 769 771
835 836 836 836 836 835 835 836 837 839 839 839 840 839 840 840 840 840 840 840 840 840 840 840 840 840 840 839 838 838 837 837 836 835 834 833 831 830 829 828 826 824 823 821 819 817 815 812 809 806 803 799 796 791 785 780 776 771 768 764 762 760 758 757 757 756 755 756 756 756 755 754 754 755 756 757 758 759 760 761 762 763 765 767 768
835 835 836 836 836 836 837 838 839 840 840 841 841 841 840 841 841 841 841 842 842 842 842 842 842 842 841 840 840 840 839 838 837 836 835 834 833 831 830 829 828 826 824 823 821 819 816 813 810 807 803 800 797 792 786 781 777 773 768 764 761 759 758 757 756 755 754 754 755 754 754 753 753 753 753 754 755 756 757 758 759 761 763 765 765
834 835 836 836 837 838 838 840 840 841 842 842 842 842 841 841 842 842 843 843 843 843 843 843 843 843 843 842 842 841 841 840 838 837 836 835 834 833 832 831 829 827 825 824 822 820 817 815 812 808 805 802 798 794 789 784 779 775 770 766 763 761 759 757 756 755 754 754 753 753 752 752 752 751 752 753 754 755 756 757 758 760 762 763 765
834 836 837 837 839 839 840 841 842 842 843 843 843 843 842 842 844 844 845 845 844 845 845 845 845 845 844 844 844 843 843 842 840 839 838 837 836 835 834 833 831 829 827 826 824 822 819 816 813 810 808 804 801 797 793 787 782 778 773 769 767 764 762 760 758 757 756 754 753 751 750 750 751 751 751 752 754 755 756 756 757 759 760 762 764
835 836 837 839 840 840 841 842 843 844 844 844 844 844 844 845 846 846 846 846 846 847 847 847 847 847 847 846 846 845 845 844 843 842 841 840 839 838 837 835 832 831 829 827 825 823 821 818 816 813 810 807 803 800 796 791 786 782 777 774 770 767 765 763 761 759 757 755 753 751 750 749 749 749 750 752 753 755 755 755 756 757 759 762 764
836 837 838 839 840 841 842 843 844 845 846 846 846 846 847 847 848 848 848 848 849 849 849 849 849 849 849 848 847 847 846 846 845 844 843 843 841 840 838 836 834 832 830 829 827 825 823 820 818 815 812 809 806 803 799 795 790 786 782 778 774 771 769 768 765 762 759 756 753 752 751 750 750 749 750 751 753 755 756 756 756 757 759 761 763
837 838 839 840 841 842 843 844 845 846 847 847 848 847 848 849 849 850 851 851 851 851 851 851 851 850 850 850 849 849 848 848 847 846 845 844 843 842 840 838 836 834 832 830 828 826 825 822 820 818 815 812 809 806 802 798 794 790 786 782 779 777 775 773 769 766 763 760 757 754 753 752 751 750 751 751 752 754 756 757 757 758 759 761 762
838 839 840 841 842 843 844 845 846 847 848 848 848 848 849 851 851 852 853 853 853 853 853 853 852 852 852 851 851 851 850 850 849 848 846 846 844 843 842 840 838 836 833 831 830 828 826 824 822 820 818 815 812 810 806 802 798 795 791 787 784 782 780 777 773 770 767 765 763 761 758 756 753 752 752 752 752 754 756 757 759 761 762 763 763
839 840 841 841 843 844 845 846 847 848 848 849 849 850 851 852 853 853 854 854 854 854 854 853 853 853 853 853 853 852 852 852 851 849 848 847 846 844 843 841 839 837 835 833 831 830 828 826 824 822 820 818 815 812 810 806 803 799 796 793 789 786 784 781 778 776 774 771 769 767 764 761 757 755 755 754 752 754 757 759 760 762 764 765 766
839 841 841 842 844 845 846 847 848 848 849 849 850 851 852 853 854 854 855 855 855 855 855 854 854 854 854 854 854 853 853 853 852 851 850 848 847 846 844 843 841 839 837 835 833 832 830 828 826 824 822 820 818 815 813 810 806 803 801 797 794 791 788 785 783 781 780 777 774 772 769 765 761 760 760 757 754 756 760 761 763 764 765 766 767
840 841 843 844 845 846 847 848 849 849 850 850 851 852 853 853 854 855 855 855 855 855 855 855 855 855 855 855 855 854 854 853 853 852 850 849 848 847 845 844 843 840 839 837 836 835 833 831 829 827 825 823 821 818 816 813 810 807 804 802 799 796 793 790 788 786 785 782 779 777 773 769 766 765 764 761 760 761 762 764 766 767 767 769 770
840 842 843 844 846 847 848 848 849 850 850 851 852 852 852 853 854 855 855 856 856 855 855 855 855 855 855 856 855 855 855 854 853 853 852 851 850 848 847 846 844 843 841 840 838 837 836 834 832 830 828 826 824 821 818 816 813 810 808 805 803 800 798 795 793 791 789 786 784 781 777 774 772 771 769 768 768 768 766 766 769 770 771 773 774
841 843 844 846 847 848 848 849 850 851 851 852 853 853 854 854 855 855 856 856 856 856 856 855 855 856 856 856 856 856 855 855 855 854 853 852 851 850 849 847 846 845 843 842 841 839 838 836 835 833 831 829 826 824 822 819 816 813 811 809 806 804 801 799 796 795 793 790 788 785 783 780 778 777 776 774 774 773 771 771 773 775 777 778 778
843 844 845 846 847 848 849 850 851 852 853 853 854 855 855 856 856 857 857 857 856 856 856 856 856 857 857 857 857 856 856 856 856 855 854 853 852 851 850 849 848 847 846 844 843 842 840 839 838 836 834 831 829 827 825 822 820 817 815 813 810 808 805 803 800 799 796 794 792 789 787 785 783 782 781 781 781 780 778 777 779 780 782 783 784
844 845 846 847 848 849 850 851 853 854 854 854 855 856 856 856 857 857 857 857 858 857 857 857 858 858 858 858 857 857 857 857 856 856 855 854 853 853 852 851 850 849 848 847 846 844 843 842 841 839 836 834 832 830 828 826 824 822 820 817 815 813 810 808 806 804 800 797 795 793 792 791 790 789 789 789 789 788 785 784 785 786 788 789 789
844 845 847 848 849 850 851 852 854 854 855 855 856 856 857 857 857 858 858 858 859 859 859 859 859 859 860 859 858 858 858 858 858 857 856 855 855 854 853 852 852 851 850 849 848 847 846 845 843 841 840 838 836 834 832 830 828 825 823 821 819 817 815 812 811 808 804 802 801 800 799 799 798 797 797 797 797 796 794 793 793 793 794 795 794
844 846 847 848 849 851 852 853 854 855 856 856 856 857 857 858 858 858 859 859 860 860 860 861 860 860 860 860 860 859 859 859 859 858 857 857 856 856 855 854 853 853 852 851 850 849 848 847 845 844 842 841 839 837 834 832 830 828 826 824 822 820 818 816 814 811 808 807 806 806 805 805 804 804 803 803 803 802 801 801 800 800 801 801 801
Wind_Speed
11 13 14 15 16 16 16 17 17 17 16 13 13 14 14 13 12 12 12 11 10 9 8 8 7 7 6 6 6 7 8 9 10 12 13 14 15 15 16 16 16 17 17 16 18 20 20 18 18 17 18 18 16 16 18 19 20 19 20 20 18 19 21 18 13 11 10 9 10 10 10 12 13 14 13 13 12 11 12 13 14 16 16 15 14
12 11 11 15 17 18 18 17 16 15 15 13 13 13 12 11 10 11 11 11 10 8 7 7 6 5 5 5 5 6 7 7 8 10 11 13 14 15 16 16 17 18 18 18 17 19 19 19 19 19 19 19 17 17 18 19 19 19 19 18 17 19 21 20 16 12 7 3 4 5 3 5 9 12 13 13 13 12 12 13 15 16 15 15 15
10 8 10 16 19 20 20 18 17 17 16 15 14 13 12 10 9 9 9 9 8 9 8 7 6 5 4 5 5 6 6 7 8 10 12 13 14 15 16 17 18 19 18 18 18 19 19 19 19 19 19 19 18 18 20 20 20 19 19 18 16 18 20 19 16 13 12 7 1 1 2 3 4 8 12 14 14 13 13 14 16 16 15 15 16
10 9 10 16 20 20 18 17 17 17 16 15 14 14 12 10 8 7 5 4 4 5 4 4 3 3 4 4 5 6 6 7 9 11 12 14 15 17 18 18 18 19 19 20 20 20 20 20 19 19 19 19 19 18 19 21 21 19 19 19 17 18 19 18 16 15 18 15 5 1 2 3 2 5 11 14 15 15 13 14 16 17 15 16 17
11 10 9 13 16 17 17 17 17 16 15 14 13 12 11 9 8 6 5 4 4 4 3 3 2 1 2 2 3 6 8 9 11 13 14 14 16 17 18 18 17 16 18 19 21 21 21 21 21 20 19 19 20 19 18 20 21 21 20 19 20 20 19 18 16 17 20 21 15 6 2 2 2 5 8 10 15 17 15 14 15 17 18 18 18
10 10 9 12 16 17 17 17 17 15 14 13 13 11 9 8 7 6 6 6 6 6 5 6 5 5 5 6 6 8 11 13 14 14 14 14 14 15 15 17 16 15 15 16 18 21 22 21 21 20 20 20 21 20 19 19 20 21 20 20 21 21 20 18 16 17 20 23 23 15 7 4 3 5 6 3 9 15 16 15 15 17 20 19 19
10 10 9 12 15 16 15 16 17 16 15 14 14 13 11 10 8 8 8 8 8 6 5 6 6 6 6 6 7 9 11 13 12 11 11 11 11 11 12 14 15 15 15 15 15 18 21 21 20 20 21 21 22 22 22 21 21 21 21 21 21 21 22 21 19 19 19 21 25 22 15 9 7 8 7 3 4 8 12 15 16 18 20 19 19
9 9 9 11 14 15 14 15 17 17 16 16 16 15 14 14 13 12 11 11 10 9 7 8 9 8 7 6 6 7 9 10 10 9 10 10 9 10 11 13 13 14 15 15 15 16 19 20 20 20 21 22 22 23 24 23 22 21 22 22 21 22 24 24 23 21 20 21 24 25 22 15 11 11 10 8 4 3 6 10 14 18 19 19 20
9 9 9 11 13 15 15 16 18 18 17 18 16 15 14 15 15 13 13 12 11 11 10 10 11 11 11 11 11 11 10 11 11 11 11 10 10 11 11 12 12 12 13 13 13 15 17 18 19 20 20 21 22 22 23 23 22 22 23 24 23 24 25 26 26 25 25 24 23 24 24 20 17 15 12 10 5 4 5 4 9 14 15 19 22
8 9 11 12 13 15 17 18 19 17 16 16 15 14 14 14 15 14 14 13 12 12 12 12 12 12 13 14 14 14 15 15 14 14 13 13 12 12 11 11 11 11 10 10 11 12 14 16 17 18 18 20 22 23 22 21 22 22 23 25 26 26 26 26 26 27 27 26 25 25 23 20 18 13 11 11 6 4 5 4 10 12 10 16 22
7 9 11 13 15 17 17 18 18 17 15 15 15 14 14 14 15 14 14 13 13 13 13 13 13 13 14 15 15 15 16 16 17 17 17 17 16 14 12 10 9 9 10 9 10 10 12 14 15 16 17 18 21 22 22 20 21 22 23 24 26 27 27 27 27 27 27 26 25 25 24 23 20 14 13 15 10 6 5 4 10 15 13 15 21
7 7 8 10 13 15 15 16 16 15 14 14 13 12 13 13 12 12 13 14 14 13 13 14 13 13 13 14 15 15 15 16 17 18 18 18 18 16 13 12 10 10 10 10 11 11 11 13 14 14 15 16 17 19 21 21 21 21 22 22 24 26 26 26 27 27 27 27 26 26 26 26 25 21 18 19 17 13 9 5 8 13 11 13 19
6 6 6 7 9 12 13 14 14 14 13 13 13 11 11 11 12 13 16 16 16 15 15 15 15 14 14 14 15 15 16 17 17 18 18 18 18 17 15 15 15 13 12 12 12 11 11 12 13 13 13 14 15 16 19 21 22 21 21 22 24 25 25 25 26 28 28 28 28 27 26 26 25 23 19 18 19 18 14 7 7 11 9 9 16
6 6 6 6 9 12 13 13 13 13 13 12 12 9 8 11 15 17 17 16 15 15 15 15 15 15 15 15 15 15 17 18 18 19 19 19 19 18 17 15 15 16 15 13 12 12 11 12 12 12 11 13 15 16 18 20 22 22 23 23 24 25 25 26 27 28 28 28 28 28 27 27 25 23 21 18 17 18 17 11 8 8 7 8 12
5 6 6 7 10 12 13 13 12 11 10 9 8 7 7 11 14 15 15 14 13 14 15 16 15 15 15 15 16 16 18 19 19 20 20 20 20 19 18 16 15 15 14 13 12 12 13 13 12 12 12 12 14 15 17 18 20 23 24 24 23 23 25 26 27 27 27 27 27 28 28 27 26 25 24 22 20 19 19 19 13 7 5 6 7
6 7 6 7 10 12 12 12 10 7 6 7 8 8 10 12 14 14 15 15 14 14 15 16 16 15 14 15 16 17 18 19 20 21 20 20 20 20 19 17 15 15 14 13 14 13 13 13 12 12 13 14 15 15 17 19 20 22 24 24 23 24 24 24 25 28 29 27 26 26 26 26 26 27 27 26 24 21 19 21 20 15 9 5 4
7 7 6 7 10 11 11 10 9 7 7 8 9 9 10 13 15 15 14 14 14 13 14 16 17 16 16 17 17 17 18 19 19 21 21 20 21 21 20 19 18 17 16 14 15 15 14 14 14 13 13 15 17 17 18 21 22 23 24 25 24 24 23 23 24 27 29 28 26 25 24 24 25 25 26 26 24 22 21 21 21 21 16 8 4
8 8 7 8 9 11 11 10 9 8 10 10 10 12 14 16 16 15 13 14 12 11 13 16 18 18 18 19 19 18 18 19 18 20 20 21 21 21 21 22 21 20 19 17 16 16 16 15 15 14 13 15 16 17 18 19 20 22 24 25 24 22 21 21 23 25 27 26 26 26 24 23 24 24 24 23 22 21 22 22 21 22 22 16 10
7 7 6 7 9 9 9 9 7 8 10 11 13 16 17 17 17 16 16 18 14 11 13 17 19 20 20 19 20 19 19 20 20 20 20 21 21 21 22 22 22 21 21 20 19 18 18 17 16 15 15 15 17 17 17 18 19 20 22 22 21 21 20 21 21 23 25 24 24 25 24 23 24 24 24 23 22 22 22 23 21 19 23 27 22
7 6 5 6 9 8 8 8 8 9 11 13 17 20 18 17 19 19 19 22 20 15 16 19 21 22 21 21 22 22 21 22 22 21 21 22 22 22 22 23 23 22 22 21 21 20 20 20 18 18 17 17 17 15 16 19 20 19 19 20 19 19 20 21 21 22 25 23 23 24 25 25 24 24 25 24 23 23 21 22 22 21 25 31 29
6 5 5 6 8 9 9 9 9 12 15 17 19 19 18 18 21 20 19 22 23 19 18 21 23 24 24 24 25 25 24 25 24 24 23 22 23 23 23 23 23 23 23 23 22 21 21 21 20 20 20 19 17 15 15 18 21 21 19 17 18 18 19 20 21 22 24 24 24 25 25 26 25 25 26 25 24 24 22 22 22 22 25 27 26
5 5 4 4 7 10 12 13 13 15 18 18 18 18 19 20 21 20 18 20 23 23 21 22 25 26 26 26 27 27 27 27 26 26 24 23 24 24 23 23 23 23 23 23 23 22 23 23 21 21 22 21 18 16 16 17 18 20 19 17 17 17 18 19 21 21 23 24 25 26 27 26 26 26 26 26 25 24 22 21 22 22 23 24 24
6 5 3 2 7 12 14 15 16 17 18 18 18 19 19 19 20 19 20 21 23 24 24 25 26 27 27 28 28 28 28 28 28 27 25 24 24 24 24 23 23 24 23 23 23 22 23 24 23 22 22 22 21 20 19 17 17 17 18 18 17 17 17 20 22 23 23 23 24 26 26 26 25 25 25 25 25 24 21 20 20 18 17 17 14
5 4 4 7 12 14 14 14 14 16 18 18 19 20 18 17 17 19 21 22 23 24 25 26 27 27 27 29 30 29 29 29 29 28 26 25 25 24 24 24 23 24 24 24 24 22 23 24 24 25 25 23 23 23 20 18 17 16 17 17 16 16 19 21 24 24 23 23 24 25 26 25 25 25 25 25 23 21 20 19 17 15 13 13 10
5 5 5 8 11 12 13 13 13 17 19 20 20 20 20 19 18 19 21 22 23 24 26 27 27 27 27 29 30 30 30 29 29 28 27 25 25 25 25 24 24 24 25 26 26 24 24 25 23 25 26 25 24 23 20 19 18 16 16 17 17 17 19 22 24 24 22 23 25 26 27 26 25 25 25 24 22 20 20 20 21 20 18 17 15
6 6 5 7 9 11 13 14 16 19 21 21 20 19 20 22 21 20 22 24 25 27 28 28 28 28 28 29 31 30 29 28 28 28 27 26 26 26 26 26 25 24 25 28 29 27 27 26 24 23 23 24 26 26 24 23 21 18 16 16 17 18 18 20 23 22 21 23 25 26 26 25 25 27 26 23 20 20 21 22 22 22 21 21 20
6 6 6 8 9 11 13 14 16 19 20 19 18 18 19 20 19 19 22 25 27 28 29 29 29 29 29 29 30 30 29 27 27 27 27 27 27 27 27 27 27 25 25 28 30 30 30 29 26 23 22 24 28 30 29 27 24 20 17 15 15 16 18 19 20 20 22 25 25 24 23 23 25 26 25 23 22 22 22 21 20 21 24 24 23
6 7 8 8 8 9 12 14 15 18 19 18 19 19 19 18 18 21 24 27 28 29 29 29 29 29 29 28 27 27 28 27 27 27 27 27 27 28 28 28 28 27 26 26 27 28 31 32 30 27 23 23 30 34 33 31 28 23 19 17 14 14 17 19 20 21 24 26 26 25 24 24 25 25 25 25 25 25 23 21 20 21 23 25 25
8 9 8 7 6 7 11 14 15 17 18 18 19 19 17 17 20 23 26 28 29 30 29 28 27 27 28 27 25 26 27 27 27 27 27 27 27 27 28 28 29 29 28 28 27 26 28 31 33 32 26 25 32 37 36 32 29 25 22 20 17 14 15 16 17 20 23 24 25 26 25 24 25 26 26 26 27 28 27 25 23 22 23 26 27
9 8 6 6 7 8 11 14 16 17 17 17 18 17 17 18 22 25 27 29 30 30 28 27 27 27 27 26 25 26 26 27 27 27 27 28 27 26 27 28 29 29 29 30 30 28 27 27 30 31 29 28 33 38 37 31 28 25 23 21 19 15 14 13 13 17 20 21 22 25 26 26 26 26 26 25 25 26 27 27 27 25 27 29 29
8 6 6 6 7 9 12 14 15 15 16 16 17 17 18 22 25 27 28 30 30 29 28 27 27 26 26 25 25 25 26 26 27 27 26 27 27 26 27 28 29 29 29 30 32 32 30 27 27 27 28 30 34 39 38 33 28 26 24 22 19 16 15 14 14 15 17 18 20 23 26 27 26 24 24 24 24 24 25 26 27 26 28 30 31
7 6 5 5 6 8 12 14 15 15 15 15 15 16 19 24 26 27 29 30 29 28 27 27 27 25 25 25 25 25 26 26 26 27 26 26 26 26 27 29 29 29 29 30 32 32 32 31 29 26 27 30 36 41 40 36 31 28 24 22 19 16 14 15 15 16 17 18 20 22 23 23 22 21 21 22 23 24 24 24 25 26 27 28 29
7 6 5 5 7 11 14 16 19 20 20 18 15 15 21 25 26 27 29 29 28 27 26 26 27 27 26 25 25 24 25 25 25 25 26 26 27 26 27 28 29 28 28 30 31 31 32 33 33 30 28 29 35 43 42 37 34 30 25 22 19 16 13 13 14 15 16 17 18 19 20 20 20 19 19 20 21 22 22 23 24 25 26 25 24
6 6 6 8 12 16 19 21 23 23 22 22 20 19 24 27 28 28 28 28 28 26 25 26 27 28 27 26 26 26 26 26 26 26 26 26 27 26 26 28 29 28 28 29 30 31 32 33 33 33 31 29 35 43 43 39 36 32 26 21 17 15 12 11 11 11 13 15 15 15 17 19 19 19 19 20 21 21 21 22 23 22 22 23 23
6 6 8 12 16 19 21 23 23 22 22 22 22 22 25 27 28 28 28 27 27 25 24 24 25 26 26 26 26 27 28 29 28 28 27 27 27 26 26 27 28 29 28 28 28 30 32 32 33 34 33 32 37 43 45 42 39 34 28 22 18 14 11 9 9 8 11 13 13 13 14 17 18 19 20 20 20 23 22 20 20 19 20 22 23
8 10 12 16 19 21 22 22 22 22 22 22 23 23 24 25 27 28 27 26 25 23 23 23 23 24 24 25 25 26 28 29 28 28 29 29 27 26 26 27 27 27 28 27 28 30 31 32 33 34 35 35 38 44 45 44 42 37 30 26 24 19 12 9 8 4 4 7 9 11 14 16 17 19 22 21 19 21 20 18 18 19 20 20 20
14 17 19 20 21 21 21 21 20 20 20 22 23 25 26 25 24 24 24 23 22 22 22 24 26 25 24 26 27 28 29 30 30 30 30 30 29 28 28 28 27 26 27 27 27 29 31 32 33 34 35 35 38 43 45 44 43 40 34 30 28 24 19 16 14 10 5 1 4 9 13 15 16 18 20 20 19 18 17 17 19 20 18 14 12
18 20 20 20 20 20 19 19 19 19 19 21 24 26 28 27 24 21 21 21 21 22 24 27 28 28 27 28 29 31 33 33 32 32 31 31 31 30 29 29 28 26 26 26 27 28 30 32 33 33 34 35 38 42 43 44 43 42 38 34 29 26 24 22 19 16 13 9 4 2 8 12 15 18 18 18 18 17 18 21 22 20 15 12 11
20 21 20 18 17 17 17 18 19 20 20 20 21 23 25 27 26 23 22 22 22 24 26 29 29 28 28 27 27 29 33 33 32 32 31 31 30 29 29 29 29 27 26 25 26 27 28 30 33 34 34 35 38 41 43 43 42 41 40 37 32 28 26 25 23 22 20 18 14 7 1 5 11 16 17 17 18 19 19 21 21 18 15 15 15
19 19 18 17 18 18 18 18 18 20 21 21 20 21 23 24 25 25 24 24 24 24 25 26 27 26 26 25 24 26 31 32 31 30 30 30 29 28 29 29 29 28 27 25 25 26 28 29 31 34 35 35 37 40 42 42 41 40 39 38 37 33 29 27 27 27 27 26 23 17 10 3 3 7 10 13 17 19 18 17 18 19 17 18 18
17 17 16 17 19 20 20 18 16 18 22 22 21 21 22 22 23 23 23 22 23 22 22 22 23 23 24 24 22 24 28 30 29 28 28 29 29 28 28 29 30 29 28 27 26 26 28 28 29 32 35 36 36 38 40 41 41 39 37 36 37 36 32 30 31 32 32 31 30 26 20 11 4 4 7 11 14 15 15 14 14 16 18 19 20
17 16 17 18 20 20 19 17 16 18 21 22 22 22 22 21 21 21 19 19 20 20 20 19 20 21 23 24 23 22 24 26 28 27 27 27 28 29 29 29 30 30 30 29 27 27 28 29 28 30 33 35 36 37 38 39 39 39 37 34 33 33 33 33 34 35 35 34 33 31 26 16 9 6 8 13 14 13 14 14 13 14 17 19 20
16 15 17 20 22 20 18 16 17 21 22 21 22 22 21 21 21 19 17 16 17 17 18 18 19 19 20 23 23 21 21 21 24 26 27 27 27 28 29 30 30 31 31 30 29 27 28 29 29 30 31 33 35 36 37 37 37 38 37 35 33 32 32 34 36 36 35 35 34 33 29 22 18 16 11 14 19 18 16 15 16 17 19 19 20
16 17 19 22 21 18 16 16 19 22 21 20 22 24 22 21 19 17 16 16 16 15 16 17 18 17 18 21 22 21 20 18 19 23 25 27 27 28 29 30 31 31 31 30 29 28 28 29 29 29 30 32 33 35 36 36 36 36 35 34 34 33 33 34 35 35 35 36 36 35 33 29 27 27 25 21 23 22 21 21 21 22 22 21 22
17 19 21 22 20 16 15 18 20 19 16 17 22 25 23 20 17 15 16 17 16 15 15 15 15 15 16 19 21 21 20 19 18 20 22 25 26 28 29 30 30 31 30 29 29 29 28 28 28 28 29 30 31 33 34 35 35 35 35 33 32 32 33 34 35 36 35 35 35 36 36 35 34 34 33 32 29 26 25 25 23 23 23 23 23
18 20 21 20 16 14 15 19 18 15 14 16 21 22 20 18 15 15 16 16 16 15 15 14 14 13 14 16 18 19 20 20 18 18 19 21 23 26 28 30 30 30 29 28 28 28 28 29 29 28 28 29 30 31 32 33 34 35 35 34 32 30 30 30 30 32 33 34 34 36 38 39 39 39 39 37 34 31 29 27 25 23 22 22 22
19 21 20 17 14 16 19 20 19 17 18 19 19 19 17 16 14 13 14 16 17 16 15 13 13 12 12 13 14 15 16 17 18 17 17 18 20 22 25 28 29 29 29 28 28 27 27 27 28 29 29 30 30 30 30 31 32 32 33 33 33 32 30 29 29 29 30 32 33 33 35 37 38 39 40 40 39 37 36 34 32 30 28 25 24
19 19 19 16 16 20 22 21 20 18 18 19 18 17 16 17 18 16 14 15 17 18 16 14 13 12 11 10 9 10 12 13 15 16 17 16 17 19 21 24 26 27 27 27 27 27 25 24 25 28 29 30 30 29 28 27 28 28 29 29 30 32 32 32 31 31 30 31 32 33 34 36 37 37 38 39 38 38 39 39 37 35 32 30 28
19 17 17 17 19 21 21 20 20 17 16 16 15 14 14 16 19 20 18 16 16 17 18 18 17 17 14 11 8 7 9 11 13 15 16 15 15 16 17 18 20 23 24 24 25 26 25 24 24 26 27 28 29 28 25 23 23 24 26 26 26 28 30 30 30 31 32 33 34 36 36 37 37 36 36 35 35 35 36 37 35 33 32 30 29
19 17 17 19 21 20 19 19 19 16 15 15 15 16 16 16 16 17 18 17 16 15 17 19 20 20 17 15 12 9 8 10 12 14 15 14 14 14 16 16 16 18 20 21 22 23 24 25 25 25 25 26 27 26 23 22 22 23 24 26 25 25 27 28 28 30 33 33 32 32 32 31 32 32 30 29 29 30 31 31 31 30 28 27 27
20 19 19 20 20 17 17 18 17 15 15 16 17 17 17 17 16 17 17 15 14 15 15 16 17 19 18 18 18 15 12 12 13 15 15 14 14 14 15 16 16 16 17 19 20 20 21 22 25 25 24 24 26 25 23 21 23 24 24 25 26 26 26 26 26 29 32 31 29 27 27 26 26 26 25 24 24 25 25 25 25 25 25 24 23
Wind_Direction
115 108 107 110 105 100 98 104 113 118 121 127 132 139 142 147 157 164 170 178 181 181 188 194 195 201 212 227 237 240 248 249 246 251 258 266 273 275 274 273 271 267 265 261 256 253 248 244 242 238 235 234 233 231 230 232 232 228 224 228 236 237 229 230 242 238 211 189 179 175 173 176 182 189 195 198 194 192 197 196 195 197 199 200 202
106 107 119 117 106 101 103 108 111 111 115 118 118 125 131 138 149 159 165 171 173 175 184 190 188 204 230 244 252 257 264 270 268 269 276 281 280 278 278 280 279 276 272 268 265 261 255 248 243 240 237 236 237 236 234 237 238 231 226 227 233 234 229 231 233 216 202 211 168 158 177 200 196 190 193 201 198 192 197 199 199 198 195 194 196
111 125 131 112 99 95 94 96 99 100 104 106 107 112 118 121 124 140 155 162 170 179 186 188 185 202 237 250 258 269 278 283 282 280 282 286 285 279 278 279 279 278 274 269 265 262 258 252 244 241 241 241 240 238 235 236 238 234 228 229 233 231 228 230 229 206 195 215 229 139 200 233 227 207 203 207 203 197 199 202 202 201 199 194 194
110 116 111 102 98 96 94 92 92 93 93 95 99 104 107 109 109 118 129 128 148 167 168 163 172 205 239 249 262 282 295 292 282 275 274 277 276 273 274 276 277 274 272 269 266 261 255 252 248 243 242 243 243 240 238 235 235 234 230 231 230 225 224 223 223 212 197 191 187 239 187 174 235 220 210 212 209 202 200 203 203 202 202 197 197
109 106 103 101 97 95 97 95 91 89 87 85 86 90 93 98 105 104 100 91 78 65 60 65 48 3 319 308 301 294 295 292 282 276 274 270 268 270 273 276 275 273 272 268 264 260 255 251 247 244 244 246 246 243 239 237 236 235 233 233 230 224 221 216 218 220 208 194 189 199 157 157 237 192 191 213 212 209 205 200 201 201 200 199 201
100 99 95 93 88 86 90 90 90 86 83 83 80 81 81 80 82 78 76 72 56 36 21 16 4 355 346 333 318 298 287 282 280 281 283 278 273 274 277 277 274 275 279 273 263 256 254 251 244 243 244 243 245 244 241 238 236 235 234 233 233 230 222 215 215 216 215 206 199 202 192 190 226 168 156 209 211 213 213 203 201 202 202 202 203
87 86 84 88 87 86 84 84 85 78 76 82 78 75 73 68 70 70 67 58 49 42 27 19 12 0 341 322 308 295 289 288 289 292 292 289 285 283 283 282 277 277 282 281 270 257 253 253 247 243 242 241 243 244 242 240 237 236 236 234 234 230 221 215 215 209 210 213 207 208 211 211 222 197 171 161 187 211 215 208 206 205 205 206 203
91 91 87 87 88 88 84 79 79 74 71 73 68 66 67 65 65 67 65 56 48 49 46 42 38 32 18 359 349 331 318 318 320 319 313 305 298 294 292 289 283 282 283 279 271 261 256 256 251 246 243 242 243 242 241 240 239 238 236 235 233 227 222 218 217 208 204 210 210 212 217 214 221 218 193 173 159 179 199 205 208 209 213 210 202
91 93 89 87 90 90 85 77 75 72 68 68 65 63 64 62 58 54 54 49 42 42 42 43 44 44 40 30 24 16 5 355 346 342 338 328 317 307 299 294 289 288 289 285 275 265 261 259 256 252 246 243 243 242 241 240 241 241 238 238 234 228 226 223 220 215 211 208 204 208 213 212 221 230 210 189 176 165 177 191 198 204 217 217 209
90 92 89 88 90 87 83 76 71 68 65 65 63 59 59 58 51 44 42 42 37 36 37 39 40 41 39 34 28 20 13 8 1 358 354 345 337 328 317 307 299 296 296 295 291 281 275 270 264 259 253 248 247 245 243 243 245 247 245 243 239 232 229 226 223 222 220 213 203 200 203 205 214 223 210 201 196 176 179 187 190 191 204 215 214
96 96 96 95 90 84 81 76 72 68 62 60 58 55 54 52 49 44 38 37 37 34 34 35 35 36 35 31 27 21 15 12 7 4 1 356 347 339 335 325 312 315 314 305 303 301 291 281 271 266 263 257 254 253 251 250 250 252 253 250 244 238 232 229 226 224 222 218 211 206 206 209 212 208 201 200 194 180 175 177 194 197 199 205 210
97 94 97 96 89 82 78 75 74 71 66 63 59 54 50 48 49 49 43 41 41 35 30 29 29 29 30 27 24 19 15 12 9 4 2 1 353 343 341 333 320 323 323 314 310 310 307 300 289 280 275 269 262 261 260 259 258 258 257 254 249 245 239 232 228 225 222 219 216 214 215 218 218 214 211 206 201 196 187 177 195 197 199 206 206
94 90 87 84 81 77 74 70 69 70 70 69 63 56 52 51 51 52 52 51 48 41 35 31 27 25 25 25 21 17 15 13 11 6 1 3 358 349 344 335 326 324 317 310 305 305 310 308 300 293 287 284 279 273 267 264 264 262 258 255 252 251 246 237 230 227 224 219 216 214 215 218 219 218 216 212 208 203 193 187 188 185 192 206 201
97 97 90 81 79 77 73 68 64 63 69 71 66 64 64 59 55 53 51 46 46 47 41 34 33 30 25 23 19 15 14 14 13 8 2 2 359 354 349 339 333 332 323 310 296 296 306 302 294 293 288 285 283 278 270 263 264 263 258 254 254 254 249 242 236 229 225 221 217 215 214 218 220 217 213 211 206 201 199 196 174 168 197 212 200
102 99 94 92 95 90 83 77 71 67 75 79 69 64 70 63 57 55 49 41 46 51 43 39 40 36 28 24 21 16 12 13 14 9 3 1 1 360 356 347 340 338 334 325 311 310 316 307 294 288 284 279 274 270 267 264 265 264 257 251 251 253 248 243 238 232 228 224 220 219 219 219 221 219 216 216 215 213 213 205 183 160 199 218 206
100 93 88 90 97 100 99 95 89 78 82 90 72 55 68 72 63 59 55 53 58 59 49 43 40 36 31 27 25 20 14 12 11 6 4 5 6 5 3 358 351 344 341 339 335 332 328 317 306 294 287 286 280 270 265 263 263 261 256 250 247 247 247 246 243 238 233 228 223 222 222 223 225 224 223 223 224 226 224 211 194 180 180 194 202
101 92 87 82 85 94 100 97 89 70 63 81 75 54 67 79 72 67 63 59 63 67 60 50 43 40 37 31 27 25 20 17 12 6 5 6 6 6 5 3 2 357 351 347 345 346 341 332 325 313 298 290 284 277 271 268 266 261 257 253 247 246 249 250 247 241 236 230 226 224 224 226 228 227 226 225 226 228 224 217 206 193 189 189 185
106 99 95 87 84 89 93 92 92 82 71 74 66 60 76 82 71 65 57 45 48 62 61 52 47 44 40 36 32 30 27 22 17 13 10 7 4 3 2 1 3 3 358 354 353 355 353 344 334 324 312 299 291 288 283 278 272 264 259 256 250 247 250 251 248 244 241 235 230 227 226 228 227 225 225 223 221 225 223 222 218 207 206 209 191
103 100 96 87 84 88 101 106 107 101 89 75 60 63 77 77 63 55 45 35 40 60 60 52 49 44 40 38 31 29 32 29 23 19 16 12 8 4 3 1 2 2 359 357 355 354 353 351 343 332 323 314 307 301 293 284 277 268 261 259 256 251 249 248 246 245 245 240 234 229 226 226 225 222 223 221 220 224 223 222 221 216 222 221 201
102 107 106 106 105 105 113 110 99 97 89 71 60 62 69 68 59 51 44 40 45 59 63 57 51 44 41 37 29 29 34 33 29 25 19 15 12 9 6 3 3 1 360 359 356 350 346 345 345 341 332 322 314 308 299 293 291 284 269 261 258 253 245 242 242 241 242 240 236 232 227 226 224 221 221 223 223 224 222 222 222 221 229 224 203
108 111 114 133 139 129 110 92 84 89 83 69 62 60 61 62 59 54 49 43 42 51 60 56 49 45 43 39 35 36 36 33 31 27 22 17 14 11 8 4 2 2 2 4 1 357 351 344 340 340 337 330 320 312 307 300 298 296 286 273 265 256 247 242 237 236 238 239 237 234 232 230 227 226 227 225 224 224 221 222 221 221 229 226 205
104 103 108 135 139 123 101 80 72 76 78 73 64 57 57 60 61 55 46 40 40 47 53 50 46 44 42 41 39 38 35 33 31 27 22 19 16 13 9 6 3 2 4 7 5 5 5 0 351 341 338 337 332 323 319 312 306 302 296 288 275 263 253 244 238 235 236 237 236 235 236 235 232 231 232 230 228 225 220 220 220 222 234 234 215
105 106 115 99 98 101 93 80 73 71 73 73 65 59 58 60 61 53 43 43 48 50 49 46 44 43 42 42 40 37 35 34 32 27 23 20 17 13 11 8 5 4 6 8 7 7 8 10 10 1 349 343 340 334 328 321 315 305 293 286 275 262 252 242 239 239 237 234 231 231 233 234 233 232 233 231 229 225 221 222 220 223 246 252 224
101 96 81 73 77 80 77 73 75 74 71 68 64 59 52 51 58 56 49 49 52 51 50 48 45 44 44 42 39 36 36 34 31 28 24 21 18 15 13 11 7 7 8 9 10 10 9 10 13 12 6 359 353 349 344 334 325 310 294 286 276 266 259 250 243 241 236 232 230 230 231 231 229 229 230 227 224 223 222 223 216 215 243 257 232
91 83 69 71 73 71 66 62 66 71 67 62 61 56 46 45 53 55 50 51 53 53 53 49 45 45 44 42 39 36 35 33 31 29 26 23 21 18 17 15 11 10 11 14 16 14 13 13 11 11 13 12 9 5 2 355 345 330 310 295 282 273 271 265 254 245 237 233 233 234 235 232 229 230 229 224 222 222 221 221 217 214 227 239 229
91 84 69 69 69 64 62 57 61 69 67 63 62 55 48 49 53 53 53 54 55 53 51 47 43 43 42 41 39 36 34 33 32 30 28 25 23 22 21 19 16 14 13 17 20 20 20 18 15 17 14 8 8 8 6 3 357 346 330 311 290 276 269 264 258 253 245 238 236 236 234 231 230 231 229 223 220 222 220 220 221 219 224 231 224
101 93 77 70 62 57 58 59 67 75 73 68 65 57 53 52 49 50 55 58 57 53 49 45 42 41 41 40 38 35 34 34 33 31 29 27 25 24 24 22 20 19 17 16 19 21 24 22 19 22 16 2 3 7 4 1 358 351 341 327 302 281 268 259 253 252 247 240 238 239 236 231 230 230 228 222 217 218 217 216 220 219 218 221 220
102 90 80 73 61 53 56 58 66 75 75 70 66 61 58 52 45 50 59 61 58 53 49 44 41 41 41 39 37 36 35 34 33 32 30 28 26 25 26 25 24 23 20 16 15 16 21 23 22 23 20 6 5 8 5 359 355 349 343 335 320 297 280 265 251 244 242 240 240 241 238 236 235 234 232 228 223 221 217 212 211 209 207 209 212
94 86 81 79 69 60 63 64 65 71 73 70 66 64 57 47 49 60 65 61 57 54 50 44 42 43 42 39 38 38 37 36 35 33 31 29 28 27 28 27 26 26 23 20 18 15 17 20 20 21 21 12 9 10 7 2 356 348 341 336 331 316 295 278 261 251 245 240 241 244 243 239 237 237 236 235 232 230 225 220 214 205 200 204 208
91 88 84 85 85 77 75 72 67 69 73 72 70 68 55 48 58 68 65 60 58 56 50 45 43 44 43 40 39 38 37 36 35 35 33 31 29 29 30 29 28 27 26 24 23 21 18 16 15 17 17 13 10 8 6 4 1 353 342 335 332 323 304 288 274 264 254 242 239 245 247 240 235 235 235 235 236 237 235 233 229 220 210 207 207
96 96 90 91 96 89 82 79 75 77 82 82 81 75 60 60 69 71 66 62 60 56 51 48 46 45 43 40 39 38 36 36 34 33 32 31 29 30 32 31 29 27 26 26 25 25 23 18 14 13 12 11 8 6 5 5 2 358 348 336 330 324 312 297 282 272 267 253 240 241 243 239 234 234 234 235 237 241 240 240 239 233 224 218 213
106 104 98 97 96 91 89 83 71 66 65 66 74 75 67 70 74 72 67 65 61 57 55 52 48 46 44 41 39 38 36 36 35 32 31 29 28 31 32 31 30 28 26 26 26 26 24 21 18 14 11 10 6 4 6 6 2 359 352 340 328 319 314 305 290 277 269 260 248 238 235 236 238 238 237 235 236 239 240 238 236 232 230 228 222
111 109 104 92 75 71 76 73 61 54 51 50 59 69 71 74 75 71 68 65 60 57 56 55 51 47 44 41 38 35 33 33 33 32 32 30 29 31 32 31 29 27 26 26 25 24 23 21 20 17 14 11 7 6 8 7 4 1 355 345 335 322 310 301 294 282 268 261 253 241 233 234 238 238 237 236 234 234 236 232 228 228 231 230 225
110 105 90 79 73 67 67 67 61 56 56 55 59 69 77 77 75 71 69 64 59 56 54 55 53 49 46 44 40 38 36 34 33 32 30 29 30 32 31 30 29 27 25 25 24 23 21 20 19 17 16 14 10 9 11 10 7 4 359 353 347 336 316 298 299 291 272 262 255 246 243 242 241 238 234 234 232 229 230 227 223 226 230 227 223
109 98 82 77 76 70 65 66 64 61 59 57 58 69 82 82 76 72 69 64 60 56 54 56 55 52 51 49 47 47 43 40 37 34 29 27 29 34 33 31 30 29 27 26 24 22 20 19 19 18 18 16 13 12 14 14 10 7 7 9 6 352 324 307 314 298 267 258 250 244 246 248 249 243 234 231 229 226 226 225 222 224 222 220 222
108 98 88 81 79 76 72 70 68 66 62 58 57 64 75 81 78 74 70 66 63 60 58 57 55 54 51 47 47 48 43 39 38 35 31 27 27 32 33 31 30 30 30 28 26 23 21 20 19 19 18 18 16 16 17 17 14 11 13 20 21 12 357 349 357 350 258 243 235 233 240 245 247 240 233 233 231 224 222 219 215 212 210 211 216
106 99 92 88 86 84 82 78 75 71 66 62 62 63 65 70 76 77 75 72 68 65 62 58 55 52 48 45 48 48 44 40 39 37 34 31 30 31 31 29 27 27 28 29 27 24 23 22 20 20 19 18 18 19 20 20 19 16 16 21 25 24 24 26 28 28 24 343 220 222 230 239 244 240 235 232 227 218 214 208 199 196 197 195 192
103 99 96 95 95 95 94 91 87 80 71 67 67 66 62 60 63 71 76 74 67 64 64 61 58 54 50 51 55 53 48 45 42 39 38 36 35 34 32 30 28 26 26 27 27 25 24 23 22 21 20 19 19 21 22 23 23 21 20 21 22 24 27 28 28 27 27 29 31 211 213 221 231 234 229 219 212 207 204 199 192 187 184 169 158
101 102 102 103 104 104 105 105 100 93 85 77 73 70 65 60 57 60 64 64 62 66 69 67 63 60 57 59 61 56 50 49 47 43 42 40 39 37 34 31 31 29 29 28 28 25 23 23 23 23 23 22 21 22 24 25 25 26 26 24 24 26 25 23 22 23 25 30 34 36 130 205 217 224 223 213 202 197 194 193 188 182 170 153 151
110 113 114 114 111 103 100 101 103 103 99 92 87 82 74 67 62 60 60 60 62 68 74 72 68 65 62 62 63 59 54 52 50 48 46 43 41 38 35 32 30 30 30 30 29 27 24 23 23 23 24 24 22 22 25 27 27 28 30 30 30 30 26 23 24 24 24 26 29 31 32 35 188 203 209 200 194 195 195 192 189 180 160 142 140
118 122 123 120 112 106 103 102 103 109 107 100 96 93 86 78 72 66 63 64 66 69 72 72 69 66 61 60 63 63 57 52 51 52 50 46 43 40 35 32 30 29 29 29 28 27 25 23 22 22 23 25 25 24 26 29 30 30 32 34 35 34 30 28 29 30 29 28 27 28 27 26 51 129 165 172 181 194 196 189 185 174 155 145 141
119 121 117 109 102 101 102 98 94 105 109 104 100 99 95 89 83 76 71 71 72 72 70 70 70 66 62 61 64 66 60 52 50 53 53 49 46 44 39 35 32 30 30 29 29 27 24 23 23 22 22 24 27 27 28 30 32 32 33 35 38 38 37 35 34 34 32 31 32 33 33 34 51 93 156 170 173 185 189 183 179 166 152 148 142
127 124 113 104 98 96 99 98 94 99 103 104 104 103 100 94 89 84 81 79 80 78 73 72 75 71 65 65 66 66 63 54 49 51 53 52 49 47 44 40 36 33 32 31 29 27 24 22 22 22 22 24 27 29 30 31 33 34 35 36 40 42 43 42 41 39 37 36 38 40 42 50 65 72 95 143 157 165 169 166 163 158 151 147 142
131 121 109 104 102 103 106 100 94 94 96 102 105 104 101 97 93 91 87 81 81 82 79 80 83 77 70 70 70 67 66 61 51 47 51 53 52 50 47 43 40 37 36 33 31 28 26 23 21 21 21 23 26 29 31 33 34 35 34 35 40 44 47 48 47 45 44 44 44 45 47 55 65 65 68 91 117 131 138 139 143 146 147 146 141
131 120 114 110 112 118 112 97 95 98 101 107 110 106 103 102 101 100 95 87 82 81 78 81 88 86 78 75 71 66 66 66 58 49 48 51 53 52 50 47 44 41 39 37 34 31 28 25 23 21 21 23 26 28 30 32 35 36 34 33 36 40 46 50 51 49 50 50 50 50 52 55 59 59 61 70 83 97 112 121 127 132 135 137 135
115 111 113 116 122 126 112 100 99 96 90 103 114 112 109 109 108 107 101 92 86 82 76 75 86 93 90 80 71 64 62 62 60 55 51 49 51 53 53 51 48 45 43 40 37 34 30 27 25 23 23 25 28 28 29 31 33 35 35 34 33 34 37 41 44 47 50 51 51 51 52 54 56 55 53 57 65 76 91 98 100 102 106 112 116
112 111 115 121 120 111 101 96 92 80 74 89 105 105 104 104 103 107 109 100 87 79 73 72 80 92 97 87 73 65 62 60 58 57 55 52 50 51 54 55 51 48 45 43 40 37 33 29 27 25 25 28 29 27 28 29 31 32 34 34 35 36 37 39 42 45 47 48 49 50 50 53 56 56 53 52 56 64 73 77 77 78 79 83 89
121 122 126 128 116 105 98 94 92 83 76 80 82 80 82 79 74 82 100 103 89 77 69 66 69 80 94 93 76 67 64 62 58 55 53 54 51 48 51 55 53 48 46 46 44 42 37 32 29 28 27 27 27 26 26 28 31 32 31 31 34 38 42 45 48 50 50 49 48 49 48 48 51 53 51 47 46 52 61 65 66 66 68 72 78
129 129 130 125 115 109 108 103 99 95 91 89 88 87 84 74 66 69 75 78 78 75 70 67 67 70 78 83 79 72 66 61 57 53 48 49 49 46 46 51 52 47 45 45 47 46 44 40 37 33 30 27 26 25 26 31 35 36 35 34 35 39 44 47 48 51 53 52 50 48 47 46 46 48 48 45 42 43 51 58 61 61 60 61 65
130 127 121 114 107 105 106 107 107 106 101 98 101 103 98 86 73 67 63 59 61 63 64 70 74 71 65 61 61 66 72 66 59 53 47 43 43 42 40 43 45 43 41 41 44 47 47 45 43 40 36 33 31 29 30 35 39 38 38 40 41 41 43 46 47 50 52 53 51 49 48 47 47 48 48 48 45 44 46 51 56 58 57 57 57
133 127 116 111 106 95 87 89 93 92 87 87 92 100 106 103 88 74 69 66 64 63 63 69 78 76 65 58 58 64 75 79 69 58 48 41 40 42 40 39 42 42 39 39 40 42 45 47 45 42 38 36 37 36 35 38 42 41 40 42 42 41 42 43 46 51 53 52 51 50 49 50 51 52 51 51 52 52 51 52 54 57 59 59 60